[[{"header":{"parameterUnit":"m.s-1","parameterCategory":1,"la1":30.2991,"la2":30.254,"lo1":-89.0895,"lo2":-89.0444,"dy":0.0017,"dx":0.0017,"nx":28,"ny":28,"refTime":"2023-11-09T03:00:00:Z","depth":0,"parameterNumber":2,"parameterNumberName":"U-component_of_WINDS"},"data":[0,0,0,0,0,0,0,0,0,0,0,0,0,0,0,0,0,0,0,0,0,0,0,0,0,0,0,0,0,0,0,0,0,0,0,0,0,0,0,0,0,0,0,0,0,0,0,0,0,0,0,0,0,0,0,0,0,0,1.513,1.513,0,1.5085,1.5084,1.5084,1.506,1.506,1.506,1.506,1.5007,1.5005,1.5004,0,0,0,0,0,0,0,0,0,0,0,0,0,1.5191,1.519,1.513,1.513,1.5129,1.5085,1.5084,1.5084,1.506,1.506,1.506,1.506,1.5007,1.5006,1.5004,0,0,0,0,0,0,0,0,0,0,0,0,0,1.5157,1.519,1.5131,1.5113,1.511,1.5085,1.5084,1.5083,1.506,1.506,1.506,1.506,1.5008,1.5006,1.5004,1.4991,0,0,1.4997,1.4996,0,0,0,0,0,0,0,0,1.5159,1.5155,1.5116,1.5114,1.5111,1.5078,1.5086,1.5052,1.506,1.5079,1.506,1.506,1.503,1.5026,1.5017,1.4988,1.4986,1.4997,1.4996,1.4995,1.4994,0,0,0,0,0,0,0,1.5161,1.5156,1.5112,1.5115,1.5112,1.5105,1.51,1.5079,1.5055,1.5077,1.5076,1.5071,1.5029,1.502,1.5016,1.4985,1.4997,1.4995,1.4994,1.4993,1.4942,1.4942,0,0,0,0,0,0,1.5167,1.5159,1.5114,1.5111,1.5136,1.5104,1.5098,1.5089,1.5055,1.505,1.5071,1.507,1.5023,1.5019,1.5014,1.4997,1.4995,1.4993,1.4992,1.4942,1.4942,1.4942,0,0,0,0,0,0,1.5169,1.5164,1.5115,1.5134,1.5128,1.5103,1.5092,1.5088,1.5079,1.5051,1.5045,1.5066,1.5023,1.5017,1.4997,1.4994,1.4992,1.499,1.4942,1.4942,1.4942,1.4962,0,0,0,0,0,0,1.5171,1.5164,1.5161,1.5134,1.5127,1.5101,1.5092,1.5087,1.5076,1.5074,1.5045,1.504,1.5023,1.5,1.4995,1.4991,1.4988,1.4942,1.4942,1.4942,1.4961,1.4962,1.4963,0,0,0,0,0,1.5173,1.5167,1.5161,1.5155,1.5122,1.5101,1.5097,1.5079,1.5076,1.5071,1.5053,1.5041,1.4996,1.4999,1.4992,1.4988,1.4942,1.4942,1.4942,1.4961,1.4962,1.4963,0,0,0,0,0,0,1.5191,1.5163,1.5156,1.5142,1.5124,1.5098,1.5091,1.5081,1.5062,1.5061,1.5038,1.5031,1.5013,1.4998,1.5002,1.4973,1.4968,1.4966,1.4984,1.4985,1.4986,1.499,1.4987,0,0,0,0,0,1.5194,1.5182,1.5157,1.5146,1.5138,1.5116,1.5106,1.5094,1.5075,1.5067,1.5047,1.5026,1.5007,1.4995,1.4976,1.4959,1.4951,1.4952,1.4953,1.4954,1.4953,1.4942,1.4942,1.4941,1.4941,1.4941,0,0,1.5199,1.5182,1.5175,1.515,1.5135,1.5121,1.511,1.5096,1.5084,1.5063,1.5044,1.5029,1.5004,1.4985,1.4976,1.4972,1.4952,1.4954,1.4955,1.4953,1.4942,1.4942,1.4942,1.4941,1.4941,1.4941,0,0,1.52,1.5187,1.5177,1.5163,1.5141,1.5126,1.5124,1.5099,1.5089,1.5069,1.5053,1.5038,1.5006,1.4989,1.4976,1.4971,1.4959,1.4965,1.4971,1.496,1.496,1.496,1.4958,1.4957,1.4964,1.4965,1.4965,0,1.5209,1.5189,1.5172,1.5159,1.5148,1.513,1.5119,1.5105,1.5077,1.5069,1.5066,1.5026,1.5008,1.4984,1.4983,1.4974,1.4969,1.4969,1.4962,1.4962,1.4961,1.4959,1.4958,1.4965,1.4965,1.4965,1.4965,0,1.52,1.5186,1.518,1.5157,1.5144,1.5132,1.5111,1.5101,1.5089,1.5074,1.5054,1.5032,1.5008,1.5001,1.4989,1.4976,1.4975,1.4967,1.4961,1.4963,1.496,1.4959,1.4967,1.4966,1.4966,1.4966,0,0,1.5212,1.518,1.5178,1.5167,1.5142,1.513,1.5115,1.5094,1.5085,1.5066,1.5053,1.5026,1.5019,1.5005,1.499,1.4981,1.4978,1.4974,1.4973,1.4976,1.4961,1.4967,1.4966,1.497,1.497,1.4969,1.4963,0,1.521,1.5187,1.5171,1.5153,1.514,1.5123,1.511,1.5092,1.5078,1.5062,1.5045,1.5027,1.5019,1.501,1.5,1.4981,1.4975,1.4981,1.4955,1.4955,1.4962,1.4965,1.4971,1.4966,1.4962,1.4961,1.4961,0,1.5205,1.5189,1.5171,1.5147,1.5141,1.513,1.5109,1.5095,1.5074,1.5063,1.5048,1.5033,1.5015,1.5011,1.4985,1.4989,1.4978,1.4966,1.4966,1.4962,1.4958,1.4961,1.4964,1.4964,1.4959,1.496,1.496,0,1.5216,1.5189,1.5175,1.5166,1.5138,1.5131,1.5118,1.5097,1.5085,1.5066,1.5057,1.5036,1.5023,1.5006,1.4985,1.4984,1.4961,1.4954,1.495,1.4951,1.4946,1.4947,1.4947,1.4939,1.4939,1.4939,1.4939,0,1.5215,1.5204,1.5179,1.517,1.5157,1.5138,1.5125,1.511,1.5092,1.5078,1.5061,1.5048,1.5021,1.5004,1.4987,1.4968,1.4962,1.4952,1.4948,1.4954,1.4955,1.4946,1.4946,1.4939,1.4939,1.4939,1.4939,0,1.5225,1.5208,1.5191,1.5166,1.516,1.5151,1.5129,1.5118,1.5103,1.5086,1.508,1.5055,1.5034,1.5012,1.4983,1.4971,1.4952,1.4946,1.4961,1.4958,1.4955,1.4956,1.4949,1.4947,1.4941,1.4941,1.4941,0,1.5226,1.5218,1.5193,1.5184,1.5172,1.5157,1.5146,1.5126,1.5114,1.5089,1.5081,1.5059,1.5041,1.5008,1.4985,1.4962,1.4955,1.4955,1.4952,1.4958,1.4955,1.4956,1.4954,1.4956,1.4956,1.4956,1.4956,0,1.523,1.5222,1.5207,1.5189,1.5176,1.5161,1.5144,1.5137,1.5113,1.51,1.508,1.5066,1.5037,1.5015,1.499,1.4974,1.4961,1.4958,1.4955,1.4961,1.497,1.4965,1.4963,1.4958,1.4958,1.4957,1.4957,1.4957,1.5235,1.5226,1.5208,1.5192,1.5177,1.5162,1.5152,1.5135,1.5119,1.5096,1.5084,1.5064,1.5041,1.5006,1.499,1.4972,1.4968,1.4965,1.4964,1.4964,1.4965,1.4973,1.4967,1.4967,1.4967,1.4967,1.4967,0,1.5237,1.5225,1.521,1.5189,1.5175,1.5166,1.5147,1.5136,1.5119,1.51,1.5083,1.5059,1.5038,1.5014,1.499,1.498,1.4973,1.4975,1.4975,1.4971,1.497,1.4975,1.4981,1.4981,1.4981,1.4981,1.4981,1.4981,1.5237,1.5223,1.5212,1.519,1.5176,1.5159,1.5148,1.5133,1.5118,1.5093,1.5076,1.5062,1.504,1.5015,1.4994,1.4987,1.4979,1.4982,1.4973,1.4973,1.4972,1.4971,1.4975,1.4981,1.4981,1.4976,1.4976,1.4976]},{"header":{"parameterUnit":"m.s-1","parameterCategory":1,"la1":30.2991,"la2":30.254,"lo1":-89.0895,"lo2":-89.0444,"dy":0.0017,"dx":0.0017,"nx":28,"ny":28,"refTime":"2023-11-09T03:00:00:Z","depth":0,"parameterNumber":3,"parameterNumberName":"V-component_of_WINDS"},"data":[0,0,0,0,0,0,0,0,0,0,0,0,0,0,0,0,0,0,0,0,0,0,0,0,0,0,0,0,0,0,0,0,0,0,0,0,0,0,0,0,0,0,0,0,0,0,0,0,0,0,0,0,0,0,0,0,0,0,-2.3798,-2.3795,0,-2.3446,-2.3442,-2.3438,-2.3275,-2.3276,-2.3276,-2.3276,-2.2904,-2.2894,-2.2884,0,0,0,0,0,0,0,0,0,0,0,0,0,-2.4323,-2.4314,-2.3799,-2.3794,-2.379,-2.3447,-2.3442,-2.3437,-2.3275,-2.3276,-2.3276,-2.3276,-2.2907,-2.2895,-2.2883,0,0,0,0,0,0,0,0,0,0,0,0,0,-2.4045,-2.4311,-2.38,-2.3668,-2.3653,-2.3448,-2.3442,-2.3436,-2.3275,-2.3276,-2.3276,-2.3277,-2.2911,-2.2896,-2.2881,-2.2777,0,0,-2.2834,-2.2828,0,0,0,0,0,0,0,0,-2.4061,-2.4026,-2.3692,-2.3677,-2.3659,-2.3405,-2.349,-2.3214,-2.3275,-2.3418,-2.3276,-2.3277,-2.307,-2.3041,-2.2974,-2.2759,-2.2743,-2.2833,-2.2824,-2.2817,-2.2813,0,0,0,0,0,0,0,-2.4081,-2.404,-2.3659,-2.3687,-2.3667,-2.3624,-2.3585,-2.3437,-2.3245,-2.3406,-2.3393,-2.3354,-2.3061,-2.2989,-2.2964,-2.2738,-2.2833,-2.282,-2.281,-2.2804,-2.2421,-2.242,0,0,0,0,0,0,-2.4123,-2.4057,-2.367,-2.3648,-2.3866,-2.3614,-2.3571,-2.3486,-2.3246,-2.321,-2.3354,-2.3348,-2.3015,-2.2982,-2.295,-2.2812,-2.2817,-2.2803,-2.2794,-2.2422,-2.2421,-2.242,0,0,0,0,0,0,-2.4135,-2.409,-2.3684,-2.3849,-2.3794,-2.3605,-2.3511,-2.3479,-2.3407,-2.3208,-2.3171,-2.3317,-2.3014,-2.2972,-2.2822,-2.2797,-2.2796,-2.2782,-2.2423,-2.2421,-2.242,-2.2536,0,0,0,0,0,0,-2.415,-2.4095,-2.4055,-2.385,-2.3786,-2.3565,-2.351,-2.3472,-2.3382,-2.3371,-2.3163,-2.3128,-2.3011,-2.2846,-2.2807,-2.2776,-2.277,-2.2424,-2.2422,-2.2421,-2.2534,-2.2539,-2.2543,0,0,0,0,0,-2.417,-2.4099,-2.4054,-2.4008,-2.3733,-2.3564,-2.3527,-2.3397,-2.3381,-2.3338,-2.321,-2.3135,-2.2807,-2.2832,-2.2787,-2.2751,-2.2425,-2.2423,-2.2421,-2.2531,-2.2538,-2.2543,0,0,0,0,0,0,-2.4301,-2.4069,-2.4017,-2.3878,-2.3743,-2.3537,-2.3478,-2.3407,-2.327,-2.3265,-2.3105,-2.3059,-2.2924,-2.2822,-2.2854,-2.2637,-2.2609,-2.2598,-2.2709,-2.2713,-2.2718,-2.2744,-2.2757,0,0,0,0,0,-2.4315,-2.4201,-2.4003,-2.3899,-2.3835,-2.367,-2.359,-2.3503,-2.3354,-2.3294,-2.3155,-2.3011,-2.2875,-2.2789,-2.2652,-2.2519,-2.2471,-2.2472,-2.2477,-2.2482,-2.2473,-2.2396,-2.2394,-2.2412,-2.2412,-2.2412,0,0,-2.434,-2.42,-2.4136,-2.3923,-2.3807,-2.3689,-2.3621,-2.3499,-2.3409,-2.3274,-2.3125,-2.3019,-2.2847,-2.2707,-2.2637,-2.2617,-2.2458,-2.2479,-2.2485,-2.2472,-2.2393,-2.2392,-2.239,-2.2411,-2.2411,-2.2411,0,0,-2.4327,-2.421,-2.4111,-2.3999,-2.3826,-2.3717,-2.3695,-2.35,-2.3425,-2.3275,-2.3172,-2.3062,-2.2831,-2.2714,-2.2624,-2.2571,-2.2496,-2.2531,-2.2555,-2.2481,-2.2479,-2.2477,-2.2458,-2.2453,-2.2523,-2.2523,-2.2523,0,-2.4378,-2.42,-2.4069,-2.3953,-2.3862,-2.374,-2.3638,-2.3534,-2.3325,-2.3263,-2.3245,-2.2956,-2.2831,-2.2661,-2.265,-2.2581,-2.2548,-2.2552,-2.2491,-2.2488,-2.2484,-2.2463,-2.2456,-2.2529,-2.2528,-2.2527,-2.2527,0,-2.4273,-2.4151,-2.4092,-2.3899,-2.3801,-2.3693,-2.3543,-2.3459,-2.3381,-2.3273,-2.3122,-2.2969,-2.2801,-2.2755,-2.2675,-2.2573,-2.2567,-2.2523,-2.249,-2.249,-2.2468,-2.2459,-2.2536,-2.2534,-2.2533,-2.2531,0,0,-2.4328,-2.4068,-2.4048,-2.3959,-2.3763,-2.3664,-2.3551,-2.3391,-2.3322,-2.3182,-2.3082,-2.2892,-2.2851,-2.275,-2.2656,-2.2592,-2.256,-2.2554,-2.2547,-2.256,-2.2438,-2.2472,-2.2466,-2.251,-2.2508,-2.2507,-2.2453,0,-2.4286,-2.4082,-2.3962,-2.3804,-2.369,-2.3574,-2.3475,-2.3343,-2.324,-2.3126,-2.301,-2.2879,-2.2835,-2.2773,-2.2704,-2.2578,-2.2533,-2.2581,-2.2412,-2.2408,-2.2458,-2.2454,-2.2488,-2.2445,-2.2443,-2.2442,-2.244,0,-2.4209,-2.4078,-2.3912,-2.3731,-2.3678,-2.3591,-2.3436,-2.3329,-2.3176,-2.3106,-2.2996,-2.2903,-2.2777,-2.2758,-2.2581,-2.2616,-2.2541,-2.2469,-2.2464,-2.2441,-2.2423,-2.243,-2.2427,-2.2421,-2.2426,-2.2427,-2.2428,0,-2.4267,-2.4048,-2.392,-2.3848,-2.3633,-2.3575,-2.3482,-2.3331,-2.3243,-2.3106,-2.3048,-2.2897,-2.2814,-2.2699,-2.2568,-2.2566,-2.2404,-2.2373,-2.234,-2.2343,-2.2308,-2.2312,-2.2292,-2.2263,-2.2263,-2.2263,-2.2264,0,-2.4232,-2.4134,-2.3943,-2.3864,-2.3752,-2.3614,-2.3505,-2.3402,-2.3269,-2.3166,-2.3056,-2.2962,-2.2795,-2.2679,-2.2575,-2.2445,-2.2408,-2.2346,-2.2319,-2.2355,-2.2363,-2.2301,-2.23,-2.2261,-2.2262,-2.2262,-2.2263,0,-2.4275,-2.4143,-2.3997,-2.3808,-2.3758,-2.3683,-2.3519,-2.3437,-2.3331,-2.3203,-2.3165,-2.2997,-2.2855,-2.2714,-2.2522,-2.2452,-2.2323,-2.2288,-2.2376,-2.2361,-2.2335,-2.234,-2.2274,-2.2258,-2.2243,-2.2243,-2.2243,0,-2.426,-2.4183,-2.3988,-2.3914,-2.3825,-2.3706,-2.3618,-2.348,-2.3392,-2.3214,-2.3153,-2.3005,-2.2879,-2.2658,-2.2517,-2.237,-2.2329,-2.2316,-2.2305,-2.2345,-2.2327,-2.2333,-2.2324,-2.232,-2.2321,-2.2322,-2.2322,0,-2.4249,-2.4189,-2.4068,-2.3925,-2.3824,-2.3703,-2.3578,-2.3523,-2.336,-2.3266,-2.3123,-2.3026,-2.2833,-2.2687,-2.2524,-2.2425,-2.2346,-2.2328,-2.2312,-2.2346,-2.2401,-2.237,-2.2388,-2.2329,-2.2328,-2.2328,-2.2327,-2.2327,-2.4261,-2.4188,-2.4041,-2.391,-2.3803,-2.369,-2.3604,-2.349,-2.3369,-2.3204,-2.313,-2.2986,-2.2835,-2.261,-2.2513,-2.2396,-2.2375,-2.2352,-2.2346,-2.2342,-2.235,-2.2422,-2.2366,-2.2365,-2.2365,-2.2365,-2.2364,0,-2.4243,-2.4144,-2.4026,-2.3857,-2.3754,-2.3695,-2.3554,-2.3471,-2.3347,-2.3216,-2.3096,-2.2932,-2.279,-2.264,-2.2489,-2.2425,-2.2385,-2.2389,-2.2391,-2.237,-2.2378,-2.2407,-2.2424,-2.2424,-2.2424,-2.2424,-2.2424,-2.2424,-2.4222,-2.4096,-2.4019,-2.3838,-2.3738,-2.3599,-2.3524,-2.3419,-2.3314,-2.3137,-2.3021,-2.2926,-2.2786,-2.2625,-2.2492,-2.2451,-2.24,-2.2415,-2.2364,-2.2373,-2.2369,-2.2365,-2.2391,-2.2405,-2.2405,-2.2365,-2.2364,-2.2364]}]]